EW6452 Weather Reports


time (UTC)temp
C
wind
direction
speed
KPH
gust
KPH
rain 1hr
cm
rain 24hr
cm
rain mn
cm
humidity
%
barometer
mb
20260506015055 25 158 1.6 8.0 0.00 0.00 0.00 83 1006.9
20260506014600 25 158 1.6 8.0 0.00 0.00 0.00 83 1006.9
20260506014054 25 158 1.6 6.4 0.00 0.00 0.00 82 1006.8
20260506013552 25 158 1.6 8.0 0.00 0.00 0.00 82 1006.7
20260506013055 25 158 3.2 11.3 0.00 0.00 0.00 81 1006.8
20260506012552 25 175 3.2 11.3 0.00 0.00 0.00 81 1006.8
20260506012058 25 205 1.6 8.0 0.00 0.00 0.00 81 1006.7
20260506011556 25 169 3.2 8.0 0.00 0.00 0.00 81 1006.7
20260506011052 26 175 3.2 6.4 0.00 0.00 0.00 81 1006.6
20260506010554 26 171 1.6 6.4 0.00 0.00 0.00 80 1006.7
20260506010058 26 183 1.6 8.0 0.00 0.00 0.00 80 1006.8
20260506005553 26 183 1.6 8.0 0.00 0.00 0.00 79 1006.7
20260506005053 26 195 1.6 9.7 0.00 0.00 0.00 79 1006.8
20260506004554 26 180 3.2 9.7 0.00 0.00 0.00 78 1006.7
20260506004053 26 178 3.2 8.0 0.00 0.00 0.00 78 1006.7
20260506003557 26 167 3.2 11.3 0.00 0.00 0.00 78 1006.9
20260506003112 26 183 3.2 11.3 0.00 0.00 0.00 77 1006.8
20260506002552 26 195 4.8 9.7 0.00 0.00 0.00 77 1006.8
20260506002053 26 173 4.8 9.7 0.00 0.00 0.00 77 1006.7
20260506001611 26 185 3.2 8.0 0.00 0.00 0.00 78 1006.7
20260506001053 26 205 3.2 8.0 0.00 0.00 0.00 77 1006.8
20260506000553 27 186 3.2 9.7 0.00 0.00 0.00 76 1006.8
20260506000058 27 189 3.2 11.3 0.00 0.00 0.00 76 1006.8
20260505235552 27 192 4.8 12.9 0.00 0.00 0.00 75 1006.8
20260505235052 27 131 3.2 12.9 0.00 0.00 0.00 75 1006.8
20260505234611 27 131 4.8 12.9 0.00 0.00 0.00 75 1006.7
20260505234053 27 175 4.8 14.5 0.00 0.00 0.00 75 1006.7
20260505233553 27 175 6.4 14.5 0.00 0.00 0.00 75 1006.4
20260505233053 27 173 4.8 14.5 0.00 0.00 0.00 74 1006.5
20260505232553 27 177 4.8 14.5 0.00 0.00 0.00 76 1006.4
20260505232056 27 214 6.4 14.5 0.00 0.00 0.00 76 1006.2
20260505231600 27 203 6.4 14.5 0.00 0.00 0.00 76 1006.1
20260505231052 27 166 4.8 17.7 0.00 0.00 0.00 77 1006.0
20260505230553 27 215 6.4 17.7 0.00 0.00 0.00 77 1006.1
20260505230058 27 175 4.8 16.1 0.00 0.00 0.00 76 1006.1
20260505225556 27 176 4.8 16.1 0.00 0.00 0.00 75 1006.2
20260505225053 27 183 8.0 16.1 0.00 0.00 0.00 73 1006.0
20260505224601 27 200 4.8 16.1 0.00 0.00 0.00 74 1006.0
20260505224055 27 207 9.7 16.1 0.00 0.00 0.00 73 1006.0
20260505223554 27 179 6.4 20.9 0.00 0.00 0.00 74 1006.0
20260505223108 27 175 8.0 20.9 0.00 0.00 0.00 73 1006.0
20260505222553 27 152 8.0 17.7 0.00 0.00 0.00 74 1006.0
20260505222053 27 184 6.4 17.7 0.00 0.00 0.00 75 1005.9
20260505221557 27 189 9.7 16.1 0.00 0.00 0.00 74 1006.0
20260505221054 27 128 6.4 16.1 0.00 0.00 0.00 74 1006.1
20260505220553 27 170 6.4 19.3 0.00 0.00 0.00 73 1006.2
20260505220059 27 128 8.0 20.9 0.00 0.00 0.00 73 1006.2
20260505215558 28 179 8.0 20.9 0.00 0.00 0.00 72 1006.1
20260505215053 28 180 8.0 17.7 0.00 0.00 0.00 71 1006.3
20260505214602 28 181 9.7 17.7 0.00 0.00 0.00 70 1006.5
20260505214053 28 205 4.8 22.5 0.00 0.00 0.00 72 1006.6
20260505213553 28 257 8.0 22.5 0.00 0.00 0.00 71 1006.6
20260505213054 28 209 9.7 20.9 0.00 0.00 0.00 71 1006.4
20260505212553 28 173 11.3 19.3 0.00 0.00 0.00 70 1006.5
20260505212053 28 205 8.0 19.3 0.00 0.00 0.00 70 1006.7
20260505211617 28 195 8.0 19.3 0.00 0.00 0.00 73 1007.0
20260505211054 28 173 9.7 22.5 0.00 0.00 0.00 70 1006.8
20260505210552 28 162 12.9 27.4 0.00 0.00 0.00 71 1006.8
20260505210056 27 191 9.7 29.0 0.00 0.00 0.00 72 1006.8
20260505205552 27 189 14.5 29.0 0.00 0.00 0.00 71 1006.8
20260505205052 27 229 11.3 22.5 0.00 0.00 0.00 72 1007.0
20260505204556 27 176 9.7 22.5 0.00 0.00 0.00 73 1007.0
20260505204057 27 165 11.3 20.9 0.00 0.00 0.00 72 1007.1
20260505203554 27 186 8.0 16.1 0.00 0.00 0.00 75 1007.0
20260505203121 27 241 9.7 22.5 0.00 0.00 0.00 74 1007.1
20260505202554 27 138 9.7 22.5 0.00 0.00 0.00 73 1007.3
20260505202054 27 214 8.0 20.9 0.00 0.00 0.00 74 1007.2
20260505201555 27 229 11.3 20.9 0.00 0.00 0.00 74 1007.3
20260505201053 27 205 9.7 20.9 0.00 0.00 0.00 74 1007.5
20260505200553 27 161 8.0 20.9 0.00 0.00 0.00 74 1007.6
20260505200055 27 225 11.3 22.5 0.00 0.00 0.00 73 1007.6
20260505195552 27 180 9.7 22.5 0.00 0.00 0.00 76 1007.6
20260505195052 27 176 11.3 22.5 0.00 0.00 0.00 75 1007.7
20260505194558 27 114 11.3 22.5 0.00 0.00 0.00 74 1007.8
20260505194053 27 177 8.0 16.1 0.00 0.00 0.00 75 1007.8
20260505193553 27 129 4.8 19.3 0.00 0.00 0.00 76 1007.9
20260505193059 26 207 9.7 19.3 0.00 0.00 0.00 76 1008.0
20260505192557 26 175 9.7 20.9 0.00 0.00 0.00 75 1007.8
20260505192054 26 210 9.7 20.9 0.00 0.00 0.00 75 1008.0
20260505191602 26 200 8.0 16.1 0.00 0.00 0.00 74 1008.1
20260505191053 27 192 6.4 17.7 0.00 0.00 0.00 76 1008.0
20260505190553 27 146 6.4 17.7 0.00 0.00 0.00 76 1008.2
20260505190056 26 205 8.0 16.1 0.00 0.00 0.00 75 1008.2
20260505185553 26 162 8.0 14.5 0.00 0.00 0.00 78 1008.2
20260505185053 26 228 4.8 16.1 0.00 0.00 0.00 77 1008.3
20260505184558 25 182 4.8 16.1 0.00 0.00 0.00 78 1008.3
20260505184054 25 182 4.8 16.1 0.00 0.00 0.00 77 1008.5
20260505183553 25 275 4.8 16.1 0.00 0.00 0.00 79 1008.6
20260505183054 25 170 8.0 16.1 0.00 0.00 0.00 78 1008.7
20260505182555 25 180 4.8 14.5 0.00 0.00 0.00 79 1008.9
20260505182054 25 186 8.0 14.5 0.00 0.00 0.00 78 1008.8
20260505181552 25 182 3.2 17.7 0.00 0.00 0.00 79 1008.9
20260505181052 25 165 8.0 19.3 0.00 0.00 0.00 81 1008.9
20260505180553 25 180 8.0 19.3 0.00 0.00 0.00 79 1009.0
20260505180057 25 191 3.2 19.3 0.00 0.00 0.00 80 1009.0
20260505175553 25 208 6.4 16.1 0.00 0.00 0.00 79 1009.0
20260505175055 25 172 6.4 17.7 0.00 0.00 0.00 80 1009.1
20260505174556 25 173 8.0 17.7 0.00 0.00 0.00 80 1009.1
20260505174053 25 184 8.0 17.7 0.00 0.00 0.00 81 1009.1
20260505173552 24 160 8.0 19.3 0.00 0.00 0.00 81 1009.1
20260505173056 24 165 6.4 19.3 0.00 0.00 0.00 83 1009.1
20260505172556 23 168 8.0 14.5 0.00 0.00 0.00 82 1009.2
20260505172052 23 180 6.4 12.9 0.00 0.00 0.00 82 1009.3
20260505171558 23 167 6.4 14.5 0.00 0.00 0.00 83 1009.1
20260505171053 23 177 8.0 17.7 0.00 0.00 0.00 83 1009.2
20260505170553 23 205 6.4 17.7 0.00 0.00 0.00 83 1009.3
20260505170055 23 188 8.0 16.1 0.00 0.00 0.00 83 1009.3
20260505165552 23 172 8.0 19.3 0.00 0.00 0.00 84 1009.3
20260505165052 23 205 8.0 19.3 0.00 0.00 0.00 84 1009.3
20260505164556 23 168 6.4 14.5 0.00 0.00 0.00 85 1009.4
20260505164055 23 211 6.4 14.5 0.00 0.00 0.00 85 1009.3
20260505163554 23 167 4.8 14.5 0.00 0.00 0.00 86 1009.3
20260505163052 22 213 4.8 19.3 0.00 0.00 0.00 86 1009.4
20260505162553 22 211 6.4 19.3 0.00 0.00 0.00 85 1009.4
20260505162053 22 200 6.4 19.3 0.00 0.00 0.00 86 1009.2
20260505161555 22 157 4.8 16.1 0.00 0.00 0.00 86 1009.3
20260505161053 22 221 6.4 16.1 0.00 0.00 0.00 86 1009.3
20260505160552 22 360 4.8 16.1 0.00 0.00 0.00 86 1009.1
20260505153057 22 360 6.4 16.1 0.00 0.00 0.00 87 1009.4
20260505152556 22 183 4.8 16.1 0.00 0.00 0.00 87 1009.4
20260505152053 22 360 4.8 12.9 0.00 0.00 0.00 87 1009.3
20260505151553 22 219 3.2 19.3 0.00 0.00 0.00 87 1009.3
20260505151053 22 187 8.0 22.5 0.00 0.00 0.00 87 1009.3
20260505150553 22 218 8.0 22.5 0.00 0.00 0.00 87 1009.3
20260505140553 21 173 6.4 16.1 0.00 0.00 0.00 88 1008.8
20260505140123 21 174 4.8 22.5 0.00 0.00 0.00 88 1008.7
20260505124554 21 198 8.0 17.7 0.00 0.00 0.00 88 1008.1
20260505124053 21 155 8.0 17.7 0.00 0.00 0.00 88 1008.0
20260505123552 21 171 6.4 19.3 0.00 0.00 0.00 88 1007.9
20260505123059 21 209 6.4 19.3 0.00 0.00 0.00 88 1007.8
20260505122552 21 162 6.4 16.1 0.00 0.00 0.00 88 1007.7
20260505122052 21 153 6.4 24.1 0.00 0.00 0.00 88 1007.7
20260505121552 21 192 11.3 24.1 0.00 0.00 0.00 88 1007.5
20260505121053 21 209 8.0 19.3 0.00 0.00 0.00 88 1007.5
20260505120552 21 214 6.4 19.3 0.00 0.00 0.00 88 1007.4
20260505120112 21 171 8.0 19.3 0.00 0.00 0.00 88 1007.3
20260505115552 21 243 8.0 22.5 0.00 0.00 0.00 88 1007.2
20260505115053 21 169 11.3 22.5 0.00 0.00 0.00 87 1007.2
20260505114558 21 187 8.0 17.7 0.00 0.00 0.00 87 1007.3
20260505114054 21 181 6.4 22.5 0.00 0.00 0.00 87 1007.3
20260505113557 21 241 6.4 22.5 0.00 0.00 0.00 87 1007.3
20260505113105 21 190 11.3 22.5 0.00 0.00 0.00 87 1007.4
20260505112552 21 167 6.4 16.1 0.00 0.00 0.00 87 1007.4
20260505112052 21 226 9.7 17.7 0.00 0.00 0.00 87 1007.1
20260505111605 21 207 8.0 22.5 0.00 0.00 0.00 87 1007.1
20260505111052 21 168 11.3 22.5 0.00 0.00 0.00 87 1007.2
20260505110553 21 243 6.4 17.7 0.00 0.00 0.00 87 1007.3
20260505102052 21 210 9.7 22.5 0.00 0.00 0.00 86 1007.5
20260505101558 21 187 8.0 19.3 0.00 0.00 0.00 86 1007.7
20260505101052 21 244 9.7 19.3 0.00 0.00 0.00 86 1007.7
20260505100555 21 218 8.0 24.1 0.00 0.00 0.00 86 1007.6
20260505100055 21 175 8.0 24.1 0.00 0.00 0.00 86 1007.9
20260505095553 21 204 6.4 16.1 0.00 0.00 0.00 86 1007.7
20260505095055 21 152 6.4 14.5 0.00 0.00 0.00 86 1007.6
20260505094602 21 177 8.0 14.5 0.00 0.00 0.00 85 1007.5
20260505094053 21 194 8.0 20.9 0.00 0.00 0.00 85 1007.9
20260505093557 21 194 9.7 20.9 0.00 0.00 0.00 85 1007.8
20260505093059 21 168 8.0 25.7 0.00 0.00 0.00 85 1007.9
20260505092554 21 197 8.0 25.7 0.00 0.00 0.00 85 1007.8
20260505092053 21 180 8.0 19.3 0.00 0.00 0.00 85 1007.7
20260505091611 21 217 8.0 19.3 0.00 0.00 0.00 85 1007.9
20260505091055 21 171 8.0 19.3 0.00 0.00 0.00 86 1008.0
20260505090553 21 198 11.3 19.3 0.00 0.00 0.00 86 1008.1
20260505085553 21 182 9.7 22.5 0.00 0.00 0.00 86 1008.0
20260505085053 21 169 9.7 22.5 0.00 0.00 0.00 86 1008.1
20260505084604 21 154 9.7 20.9 0.00 0.00 0.00 86 1008.2
20260505084053 21 172 6.4 17.7 0.00 0.00 0.00 86 1008.0
20260505083554 21 201 9.7 22.5 0.00 0.00 0.00 86 1008.0
20260505083105 21 197 9.7 22.5 0.00 0.00 0.00 86 1008.0
20260505082552 21 194 11.3 20.9 0.00 0.00 0.00 86 1008.4
20260505082052 21 177 11.3 20.9 0.00 0.00 0.00 86 1008.3
20260505081554 21 165 4.8 11.3 0.00 0.00 0.00 86 1008.3
20260505081052 21 198 4.8 19.3 0.00 0.00 0.00 86 1008.3
20260505080552 21 181 6.4 19.3 0.00 0.00 0.00 85 1008.3
20260505080054 21 209 9.7 25.7 0.00 0.00 0.00 85 1008.3
20260505075552 21 188 9.7 25.7 0.00 0.00 0.00 85 1008.2
20260505075052 21 173 11.3 20.9 0.00 0.00 0.00 85 1008.4
20260505074559 21 193 8.0 24.1 0.00 0.00 0.00 85 1008.5
20260505074052 21 233 9.7 24.1 0.00 0.00 0.00 85 1008.7
20260505073552 21 180 9.7 20.9 0.00 0.00 0.00 85 1008.6
20260505073057 21 195 11.3 20.9 0.00 0.00 0.00 85 1008.6
20260505072555 21 230 11.3 20.9 0.00 0.00 0.00 85 1008.8
20260505072054 21 201 9.7 29.0 0.00 0.00 0.00 85 1009.0
20260505071600 21 189 9.7 29.0 0.00 0.00 0.00 85 1009.0
20260505071052 21 175 8.0 20.9 0.00 0.00 0.00 85 1009.1
20260505070553 21 178 9.7 24.1 0.00 0.00 0.00 85 1009.1
20260505070104 21 134 9.7 24.1 0.00 0.00 0.00 85 1009.1
20260505065553 21 207 9.7 24.1 0.00 0.00 0.00 85 1009.2
20260505065052 21 181 8.0 19.3 0.00 0.00 0.00 85 1009.1
20260505064557 21 221 8.0 19.3 0.00 0.00 0.00 85 1009.1
20260505064053 21 130 9.7 19.3 0.00 0.00 0.00 85 1009.3
20260505063553 21 242 11.3 19.3 0.00 0.00 0.00 85 1009.2
20260505063054 21 154 6.4 17.7 0.00 0.00 0.00 85 1009.4
20260505062555 21 175 9.7 20.9 0.00 0.00 0.00 85 1009.4
20260505062056 21 182 8.0 22.5 0.00 0.00 0.00 84 1009.5
20260505061613 21 192 12.9 27.4 0.00 0.00 0.00 84 1009.6
20260505061053 21 173 11.3 27.4 0.00 0.00 0.00 84 1009.6
20260505060553 21 206 12.9 27.4 0.00 0.00 0.00 84 1009.6
20260505060059 21 167 9.7 22.5 0.00 0.00 0.00 84 1009.6
20260505055553 21 236 6.4 20.9 0.00 0.00 0.00 85 1009.5
20260505055053 21 151 8.0 20.9 0.00 0.00 0.00 85 1009.6
20260505054557 21 172 8.0 20.9 0.00 0.00 0.00 84 1009.6
20260505054053 21 179 8.0 16.1 0.00 0.00 0.00 84 1009.6
20260505053554 21 224 8.0 19.3 0.00 0.00 0.00 84 1009.5
20260505053059 21 226 9.7 19.3 0.00 0.00 0.00 84 1009.4
20260505052553 21 182 9.7 20.9 0.00 0.00 0.00 84 1009.5
20260505052053 21 211 11.3 24.1 0.00 0.00 0.00 84 1009.5
20260505051555 21 165 9.7 24.1 0.00 0.00 0.00 85 1009.6
20260505051052 21 213 9.7 19.3 0.00 0.00 0.00 85 1009.5
20260505050554 21 186 11.3 24.1 0.00 0.00 0.00 85 1009.5
20260505041601 22 360 6.4 19.3 0.00 0.00 0.00 82 1009.5
20260505041054 22 360 6.4 22.5 0.00 0.00 0.00 81 1009.3
20260505040554 22 214 9.7 22.5 0.00 0.00 0.00 81 1009.4
20260505035555 22 360 8.0 17.7 0.00 0.00 0.00 81 1009.4
20260505035057 22 224 9.7 17.7 0.00 0.00 0.00 80 1009.5
20260505034559 22 163 9.7 16.1 0.00 0.00 0.00 80 1009.4
20260505034051 22 207 9.7 17.7 0.00 0.00 0.00 80 1009.4
20260505033554 22 193 8.0 19.3 0.00 0.00 0.00 80 1009.4
20260505033102 22 187 9.7 19.3 0.00 0.00 0.00 80 1009.4
20260505032552 22 360 6.4 19.3 0.00 0.00 0.00 79 1009.4
20260505032056 22 161 4.8 19.3 0.00 0.00 0.00 79 1009.3
20260505031557 22 169 9.7 22.5 0.00 0.00 0.00 78 1009.3
20260505031053 23 221 11.3 22.5 0.00 0.00 0.00 78 1009.3
20260505030555 23 204 9.7 20.9 0.00 0.00 0.00 78 1009.4
20260505030104 23 216 8.0 19.3 0.00 0.00 0.00 78 1009.5
20260505025551 23 218 9.7 19.3 0.00 0.00 0.00 77 1009.5
20260505025051 23 184 6.4 17.7 0.00 0.00 0.00 77 1009.5
20260505024553 23 231 9.7 17.7 0.00 0.00 0.00 77 1009.3
20260505024051 23 197 8.0 14.5 0.00 0.00 0.00 77 1009.3
20260505023551 23 179 6.4 16.1 0.00 0.00 0.00 76 1009.4
20260505023054 23 196 6.4 16.1 0.00 0.00 0.00 76 1009.3
20260505022551 23 185 6.4 16.1 0.00 0.00 0.00 75 1009.2
20260505022057 23 215 6.4 16.1 0.00 0.00 0.00 75 1009.4
20260505021553 23 175 8.0 17.7 0.00 0.00 0.00 74 1009.3
20260505021055 23 179 9.7 17.7 0.00 0.00 0.00 74 1009.1
20260505020554 23 171 8.0 17.7 0.00 0.00 0.00 73 1009.2
20260505020055 23 229 6.4 19.3 0.00 0.00 0.00 73 1009.2
20260505015551 23 188 8.0 19.3 0.00 0.00 0.00 73 1009.2